COSMOS 2251 DEB, 37968

Orbit data source: Space-Track

COSMOS 2251 DEB, 37968 is space debris in LEO originally from a launch on Wed, 16 Jun 1993 UTC launched from the Plesetsk Missile And Space Complex (PKMTR). The debris from Iridium 33, an American commercial communications satellite, has been tracked extensively since its accidental collision with the defunct Russian satellite Cosmos 2251 in 2009. This event, occurring at high speed in low Earth orbit (LEO), generated thousands of pieces of space debris, significantly increasing the risk of further collisions. The Iridium 33 debris cloud has impacted space traffic management and orbital debris mitigation strategies, making it a subject of ongoing study in space situational awareness.

Loading next visibility...
Identifier
37968, 1993-036BPT
Orbit
LEO
Country
Flag of CISCIS
Related business
Manufacturer
Unknown
Mission
Spacecraft
Bus & Motor
Unknown
Mass
Unknown
Launch date (UTC)
1993-06-16 (33 years ago)
Launch vehicle
Unknown
Launch site
Plesetsk Missile And Space Complex (PKMTR)
Object type
Payload
Rocket body
Debris
Shape & HBR
Unknown shape, 0.1 m
Radar Cross Section
Small (<0.1 m²)

Expand to show TLE details & history
Last TLE update: 1 week ago

TLE from 1 week ago
0 COSMOS 2251 DEB
1 37968U 93036BPT 26030.65495632  .00015274  00000-0  10897-2 0  9991
2 37968  73.9994 171.3226 0080857 276.0227  83.1751 15.01896475609536
Epoch: 2026-01-30T15:43Z
TLE epoch observation values (Epoch: 2026-01-30T15:43:08.226Z)
Latitude
0.00004°
Longitude
165.64815°
Altitude
557.516 km
Speed
7.586 km/s
True Right ascension
11h 25m 17s
True Declination
0° 00' 00"
Sunlit
Object was in full shadow at epoch
Visualization orbit readout
Latitude
Unknown
Longitude
Unknown
Altitude
Unknown
Speed
Unknown
Apparent Right ascension
Unknown
Apparent Declination
Unknown
Sunlit
N/A
Visualization observer readout
Local Sidereal Time
09:27:12
Azimuth
Unknown
Elevation
Unknown
Doppler factor
Unknown
Orbital elements
Apogee altitude
614.692 km
Perigee altitude
502.515 km
Semi-major axis
6,936.74 km
Eccentricity
0.00809
Inclination
73.9994°
RAAN
171.3226°
Arg. of periapsis
276.0227°
True anomaly
84.09615°
Mean anomaly
83.1751°
Eccentric anomaly
83.63552°
Mean motion
3.75673 °/min
Orbital period
95.83 mins
BSTAR
0.0010897
Loading maneuver chart data...
Computing Atmospheric mass density...

Documentation

Showing up to 5 results
|